Henderson, TX

3:48 PM CDT on August 29, 2016 (GMT -0500)
Henderson

Weather History for KRFI - March, 2013

Change the Weather History Date:

Sunday, March 3, 2013

  Actual Average (KGGG) Record (KGGG)
Temperature  
Mean Temperature 46 °F 54 °F  
Max Temperature 66 °F 66 °F 81 °F (1941)
Min Temperature 26 °F 43 °F 18 °F (1980)
Degree Days  
Heating Degree Days 19 11  
Month to date heating degree days 34  
Since 1 July heating degree days 1938  
Cooling Degree Days 0 1  
Month to date cooling degree days 3  
Year to date cooling degree days 15  
Moisture  
Dew Point 27 °F    
Average Humidity 52    
Maximum Humidity 93    
Minimum Humidity 24    
Precipitation  
Precipitation 0.00 in 0.12 in 2.70 in (1945)
Month to date precipitation 0.40  
Year to date precipitation 7.76  
Snow  
Snow 0.00 in - - ()
Month to date snowfall  
Since 1 July snowfall  
Snow Depth -    
Sea Level Pressure  
Sea Level Pressure 30.12 in    
Wind  
Wind Speed 4 mph (South)    
Max Wind Speed 14 mph    
Max Gust Speed 22 mph    
Visibility 10 miles    
Events      
T = Trace of Precipitation, MM = Missing Value Source: NWS Daily Summary

Daily Weather History Graph

Daily Weather History Graph

Search for Another Location

Airport or City:

Trip Planner

Search our weather history database for the weather conditions in past years. The results will help you decide how hot, cold, wet, or windy it might be!

Date:

Astronomy

Mar. 03, 2013 Rise Set
Actual Time 6:44 AM CST 6:18 PM CST
Civil Twilight 6:19 AM CST 6:43 PM CST
Nautical Twilight 5:51 AM CST 7:11 PM CST
Astronomical Twilight 5:22 AM CST 7:40 PM CST
Moon No Moon Rise 10:23 AM CST (3/3)
Length of Visible Light 12h 23m
Length of Day
11h 34m
Waning Gibbous, 63% of the Moon is Illuminated
Mar 3
Waning Gibbous
Mar 4
Last Quarter
Mar 11
New
Mar 19
First Quarter
Mar 27
Full

Hourly Weather History & Observations

Time (CST) Temp. Windchill Dew Point Humidity Pressure Visibility Wind Dir Wind Speed Gust Speed Precip Events Conditions
12:15 AM 30.2 °F - 23.0 °F 75% 30.26 in 10.0 mi Calm Calm - N/A   Clear
12:35 AM 30.2 °F - 23.0 °F 75% 30.25 in 10.0 mi Calm Calm - N/A   Clear
12:55 AM 30.2 °F - 23.0 °F 75% 30.25 in 10.0 mi Calm Calm - N/A   Clear
1:15 AM 28.4 °F - 23.0 °F 80% 30.25 in 10.0 mi Calm Calm - N/A   Clear
1:35 AM 30.2 °F - 24.8 °F 80% 30.24 in 10.0 mi Calm Calm - N/A   Clear
1:55 AM 28.4 °F - 23.0 °F 80% 30.25 in 10.0 mi Calm Calm - N/A   Clear
2:15 AM 28.4 °F - 23.0 °F 80% 30.24 in 10.0 mi Calm Calm - N/A   Clear
2:35 AM 28.4 °F - 24.8 °F 86% 30.24 in 10.0 mi Calm Calm - N/A   Clear
2:55 AM 28.4 °F - 24.8 °F 86% 30.23 in 10.0 mi Calm Calm - N/A   Clear
3:15 AM 28.4 °F - 26.6 °F 93% 30.23 in 10.0 mi Calm Calm - N/A   Clear
3:35 AM 28.4 °F - 24.8 °F 86% 30.23 in 10.0 mi Calm Calm - N/A   Clear
3:55 AM 28.4 °F - 24.8 °F 86% 30.23 in 10.0 mi Calm Calm - N/A   Clear
4:15 AM 28.4 °F - 24.8 °F 86% 30.24 in 10.0 mi Calm Calm - N/A   Clear
4:35 AM 26.6 °F - 23.0 °F 86% 30.24 in 10.0 mi Calm Calm - N/A   Clear
4:55 AM 26.6 °F - 24.8 °F 93% 30.24 in 10.0 mi Calm Calm - N/A   Clear
5:15 AM 28.4 °F - 24.8 °F 86% 30.25 in 10.0 mi Calm Calm - N/A   Clear
5:35 AM 28.4 °F - 24.8 °F 86% 30.24 in 10.0 mi Calm Calm - N/A   Clear
5:55 AM 28.4 °F - 24.8 °F 86% 30.24 in 10.0 mi Calm Calm - N/A   Clear
6:15 AM 28.4 °F - 24.8 °F 86% 30.23 in 10.0 mi Calm Calm - N/A   Clear
6:35 AM 26.6 °F - 23.0 °F 86% 30.23 in 10.0 mi Calm Calm - N/A   Clear
6:55 AM 28.4 °F - 24.8 °F 86% 30.23 in 10.0 mi Calm Calm - N/A   Clear
7:15 AM 28.4 °F - 26.6 °F 93% 30.23 in 10.0 mi Calm Calm - N/A   Clear
7:35 AM 32.0 °F - 26.6 °F 80% 30.24 in 10.0 mi Calm Calm - N/A   Clear
7:55 AM 32.0 °F - 26.6 °F 80% 30.24 in 10.0 mi Calm Calm - N/A   Clear
8:15 AM 35.6 °F - 26.6 °F 70% 30.24 in 10.0 mi Calm Calm - N/A   Clear
8:35 AM 41.0 °F 38.0 °F 26.6 °F 57% 30.25 in 10.0 mi South 4.6 mph - N/A   Clear
8:55 AM 42.8 °F 39.3 °F 21.2 °F 42% 30.25 in 10.0 mi South 5.8 mph - N/A   Clear
9:15 AM 46.4 °F 42.9 °F 21.2 °F 37% 30.24 in 10.0 mi SSW 6.9 mph - N/A   Clear
9:35 AM 46.4 °F 42.4 °F 19.4 °F 34% 30.24 in 10.0 mi South 8.1 mph - N/A   Clear
9:55 AM 50.0 °F - 19.4 °F 30% 30.24 in 10.0 mi South 8.1 mph - N/A   Clear
10:15 AM 50.0 °F - 21.2 °F 32% 30.23 in 10.0 mi South 10.4 mph - N/A   Clear
10:35 AM 51.8 °F - 21.2 °F 30% 30.22 in 10.0 mi SSW 6.9 mph - N/A   Clear
10:55 AM 53.6 °F - 21.2 °F 28% 30.21 in 10.0 mi South 10.4 mph - N/A   Clear
11:15 AM 55.4 °F - 21.2 °F 26% 30.20 in 10.0 mi South 6.9 mph - N/A   Clear
11:35 AM 55.4 °F - 23.0 °F 29% 30.19 in 10.0 mi SSW 5.8 mph - N/A   Clear
11:55 AM 59.0 °F - 23.0 °F 25% 30.18 in 10.0 mi SSW 6.9 mph - N/A   Clear
12:15 PM 59.0 °F - 23.0 °F 25% 30.16 in 10.0 mi South 6.9 mph - N/A   Clear
12:35 PM 59.0 °F - 24.8 °F 27% 30.14 in 10.0 mi South 11.5 mph - N/A   Clear
12:55 PM 60.8 °F - 24.8 °F 25% 30.12 in 10.0 mi South 9.2 mph - N/A   Clear
1:15 PM 62.6 °F - 26.6 °F 26% 30.10 in 10.0 mi SSW 8.1 mph - N/A   Clear
1:35 PM 62.6 °F - 26.6 °F 26% 30.09 in 10.0 mi South 9.2 mph 19.6 mph N/A   Clear
1:55 PM 62.6 °F - 26.6 °F 26% 30.08 in 10.0 mi South 10.4 mph 16.1 mph N/A   Clear
2:35 PM 66.2 °F - 28.4 °F 24% 30.05 in 10.0 mi South 12.7 mph 18.4 mph N/A   Clear
2:55 PM 66.2 °F - 28.4 °F 24% 30.04 in 10.0 mi SSW 8.1 mph 16.1 mph N/A   Clear
3:15 PM 66.2 °F - 28.4 °F 24% 30.03 in 10.0 mi South 13.8 mph 19.6 mph N/A   Clear
3:35 PM 66.2 °F - 28.4 °F 24% 30.02 in 10.0 mi SSW 10.4 mph 17.3 mph N/A   Clear
3:55 PM 66.2 °F - 28.4 °F 24% 30.00 in 10.0 mi SSW 8.1 mph 18.4 mph N/A   Clear
4:35 PM 64.4 °F - 28.4 °F 26% 30.00 in 10.0 mi South 10.4 mph 18.4 mph N/A   Clear
4:55 PM 66.2 °F - 28.4 °F 24% 29.99 in 10.0 mi South 9.2 mph 17.3 mph N/A   Clear
5:15 PM 64.4 °F - 28.4 °F 26% 29.99 in 10.0 mi South 10.4 mph 18.4 mph N/A   Clear
5:35 PM 64.4 °F - 30.2 °F 28% 29.98 in 10.0 mi South 11.5 mph - N/A   Clear
5:55 PM 62.6 °F - 30.2 °F 30% 29.98 in 10.0 mi South 11.5 mph 16.1 mph N/A   Clear
6:15 PM 60.8 °F - 30.2 °F 31% 29.98 in 10.0 mi South 6.9 mph - N/A   Clear
6:35 PM 60.8 °F - 30.2 °F 31% 29.98 in 10.0 mi South 8.1 mph - N/A   Clear
6:55 PM 59.0 °F - 30.2 °F 34% 29.98 in 10.0 mi South 6.9 mph - N/A   Clear
7:35 PM 57.2 °F - 30.2 °F 36% 29.97 in 10.0 mi South 8.1 mph - N/A   Clear
7:55 PM 57.2 °F - 30.2 °F 36% 29.97 in 10.0 mi South 8.1 mph - N/A   Clear
8:15 PM 57.2 °F - 30.2 °F 36% 29.96 in 10.0 mi South 8.1 mph - N/A   Clear
8:35 PM 57.2 °F - 30.2 °F 36% 29.96 in 10.0 mi South 11.5 mph - N/A   Clear
8:55 PM 55.4 °F - 30.2 °F 38% 29.95 in 10.0 mi South 11.5 mph 16.1 mph N/A   Clear
9:15 PM 55.4 °F - 32.0 °F 41% 29.96 in 10.0 mi South 9.2 mph - N/A   Clear
9:35 PM 55.4 °F - 32.0 °F 41% 29.96 in 10.0 mi South 10.4 mph 17.3 mph N/A   Clear
9:55 PM 55.4 °F - 32.0 °F 41% 29.96 in 10.0 mi South 10.4 mph - N/A   Clear
10:15 PM 53.6 °F - 33.8 °F 47% 29.96 in 10.0 mi South 10.4 mph 21.9 mph N/A   Clear
10:35 PM 53.6 °F - 33.8 °F 47% 29.96 in 10.0 mi South 13.8 mph 18.4 mph N/A   Clear
10:55 PM 53.6 °F - 35.6 °F 51% 29.95 in 10.0 mi South 9.2 mph 17.3 mph N/A   Clear
11:15 PM 53.6 °F - 35.6 °F 51% 29.96 in 10.0 mi South 10.4 mph 21.9 mph N/A   Clear
11:35 PM 53.6 °F - 35.6 °F 51% 29.95 in 10.0 mi South 13.8 mph 20.7 mph N/A   Clear
11:55 PM 51.8 °F - 37.4 °F 58% 29.95 in 10.0 mi South 12.7 mph 21.9 mph N/A   Clear